Time,TemperatureF,DewpointF,PressureIn,WindDirection,WindDirectionDegrees,WindSpeedMPH,WindSpeedGustMPH,Humidity,HourlyPrecipIn,Conditions,Clouds,dailyrainin,SolarRadiationWatts/m^2,SoftwareType,DateUTC
2013-02-07 00:02:00,17.0,14.0,-100.00,ESE,119,3.0,4.0,88,0.00,,,0.00,0.000000,,2013-02-07 05:02:00,
2013-02-07 00:11:00,17.0,14.0,-100.00,ESE,119,3.0,4.0,88,0.00,,,0.00,0.000000,,2013-02-07 05:11:00,
2013-02-07 00:32:00,17.0,14.0,-100.00,ENE,65,0.0,4.0,89,0.00,,,0.00,0.000000,,2013-02-07 05:32:00,
2013-02-07 00:42:00,17.0,14.0,-100.00,ENE,65,0.0,4.0,89,0.00,,,0.00,0.000000,,2013-02-07 05:42:00,
2013-02-07 00:52:00,17.0,14.0,-100.00,ENE,65,0.0,4.0,89,0.00,,,0.00,0.000000,,2013-02-07 05:52:00,
2013-02-07 01:02:00,17.0,14.0,-100.00,ENE,65,0.0,4.0,89,0.00,,,0.00,0.000000,,2013-02-07 06:02:00,
2013-02-07 01:11:00,17.0,14.0,-100.00,ENE,65,0.0,4.0,89,0.00,,,0.00,0.000000,,2013-02-07 06:11:00,
2013-02-07 01:32:00,17.0,15.0,-100.00,NE,45,2.0,4.0,90,0.00,,,0.00,0.000000,,2013-02-07 06:32:00,
2013-02-07 01:43:00,17.0,15.0,-100.00,NE,45,2.0,4.0,90,0.00,,,0.00,0.000000,,2013-02-07 06:43:00,
2013-02-07 01:52:00,17.0,15.0,-100.00,NE,45,2.0,4.0,90,0.00,,,0.00,0.000000,,2013-02-07 06:52:00,
2013-02-07 02:01:00,17.0,15.0,-100.00,NE,45,2.0,4.0,90,0.00,,,0.00,0.000000,,2013-02-07 07:01:00,
2013-02-07 02:11:00,17.0,15.0,-100.00,NE,45,2.0,4.0,90,0.00,,,0.00,0.000000,,2013-02-07 07:11:00,
2013-02-07 02:32:00,17.0,15.0,-100.00,East,84,3.0,6.0,90,0.00,,,0.00,0.000000,,2013-02-07 07:32:00,
2013-02-07 02:42:00,17.0,15.0,-100.00,East,84,3.0,6.0,90,0.00,,,0.00,0.000000,,2013-02-07 07:42:00,
2013-02-07 02:52:00,17.0,15.0,-100.00,East,84,3.0,6.0,90,0.00,,,0.00,0.000000,,2013-02-07 07:52:00,
2013-02-07 03:01:00,17.0,15.0,-100.00,East,84,3.0,6.0,90,0.00,,,0.00,0.000000,,2013-02-07 08:01:00,
2013-02-07 03:11:00,17.0,15.0,-100.00,East,84,3.0,6.0,90,0.00,,,0.00,0.000000,,2013-02-07 08:11:00,
2013-02-07 03:32:00,17.0,14.0,-100.00,ENE,67,2.0,6.0,89,0.00,,,0.00,0.000000,,2013-02-07 08:32:00,
2013-02-07 03:42:00,17.0,14.0,-100.00,ENE,67,2.0,6.0,89,0.00,,,0.00,0.000000,,2013-02-07 08:42:00,
2013-02-07 03:52:00,17.0,14.0,-100.00,ENE,67,2.0,6.0,89,0.00,,,0.00,0.000000,,2013-02-07 08:52:00,
2013-02-07 04:02:00,17.0,14.0,-100.00,ENE,67,2.0,6.0,89,0.00,,,0.00,0.000000,,2013-02-07 09:02:00,
2013-02-07 04:11:00,17.0,14.0,-100.00,ENE,67,2.0,6.0,89,0.00,,,0.00,0.000000,,2013-02-07 09:11:00,
2013-02-07 04:32:00,17.0,14.0,-100.00,ENE,77,2.0,5.0,89,0.00,,,0.00,0.000000,,2013-02-07 09:32:00,
2013-02-07 04:42:00,17.0,14.0,-100.00,ENE,77,2.0,5.0,89,0.00,,,0.00,0.000000,,2013-02-07 09:42:00,
2013-02-07 04:52:00,17.0,14.0,-100.00,ENE,77,2.0,5.0,89,0.00,,,0.00,0.000000,,2013-02-07 09:52:00,
2013-02-07 05:01:00,17.0,14.0,-100.00,ENE,77,2.0,5.0,89,0.00,,,0.00,0.000000,,2013-02-07 10:01:00,
2013-02-07 05:11:00,17.0,14.0,-100.00,ENE,77,2.0,5.0,89,0.00,,,0.00,0.000000,,2013-02-07 10:11:00,
2013-02-07 05:32:00,17.0,14.0,-100.00,NE,56,2.0,4.0,89,0.00,,,0.00,0.000000,,2013-02-07 10:32:00,
2013-02-07 05:42:00,17.0,14.0,-100.00,NE,56,2.0,4.0,89,0.00,,,0.00,0.000000,,2013-02-07 10:42:00,
2013-02-07 05:52:00,17.0,14.0,-100.00,NE,56,2.0,4.0,89,0.00,,,0.00,0.000000,,2013-02-07 10:52:00,
2013-02-07 06:01:00,17.0,14.0,-100.00,NE,56,2.0,4.0,89,0.00,,,0.00,0.000000,,2013-02-07 11:01:00,
2013-02-07 06:11:00,17.0,14.0,-100.00,NE,56,2.0,4.0,89,0.00,,,0.00,0.000000,,2013-02-07 11:11:00,
2013-02-07 06:32:00,17.0,14.0,-100.00,ENE,71,2.0,6.0,89,0.00,,,0.00,0.000000,,2013-02-07 11:32:00,
2013-02-07 06:44:00,17.0,14.0,-100.00,ENE,71,2.0,6.0,89,0.00,,,0.00,0.000000,,2013-02-07 11:44:00,
2013-02-07 06:53:00,17.0,14.0,-100.00,ENE,71,2.0,6.0,89,0.00,,,0.00,0.000000,,2013-02-07 11:53:00,
2013-02-07 07:02:00,17.0,14.0,-100.00,ENE,71,2.0,6.0,89,0.00,,,0.00,0.000000,,2013-02-07 12:02:00,
2013-02-07 07:11:00,17.0,14.0,-100.00,ENE,71,2.0,6.0,89,0.00,,,0.00,0.000000,,2013-02-07 12:11:00,
2013-02-07 07:12:00,17.0,14.0,-100.00,NE,34,2.0,4.0,89,0.00,,,0.00,0.000000,,2013-02-07 12:12:00,
2013-02-07 07:33:00,17.0,14.0,-100.00,NE,34,2.0,4.0,89,0.00,,,0.00,0.000000,,2013-02-07 12:33:00,
2013-02-07 07:42:00,17.0,14.0,-100.00,NE,34,2.0,4.0,89,0.00,,,0.00,0.000000,,2013-02-07 12:42:00,
2013-02-07 07:53:00,17.0,14.0,-100.00,NE,34,2.0,4.0,89,0.00,,,0.00,0.000000,,2013-02-07 12:53:00,
2013-02-07 08:03:00,17.0,14.0,-100.00,NE,34,2.0,4.0,89,0.00,,,0.00,0.000000,,2013-02-07 13:03:00,
2013-02-07 08:32:00,17.0,15.0,-100.00,NE,36,2.0,6.0,90,0.00,,,0.00,0.000000,,2013-02-07 13:32:00,
2013-02-07 08:42:00,17.0,15.0,-100.00,NE,36,2.0,6.0,90,0.00,,,0.00,0.000000,,2013-02-07 13:42:00,
2013-02-07 08:52:00,17.0,15.0,-100.00,NE,36,2.0,6.0,90,0.00,,,0.00,0.000000,,2013-02-07 13:52:00,
2013-02-07 09:01:00,17.0,15.0,-100.00,NE,36,2.0,6.0,90,0.00,,,0.00,0.000000,,2013-02-07 14:01:00,
2013-02-07 09:11:00,17.0,15.0,-100.00,NE,36,2.0,6.0,90,0.00,,,0.00,0.000000,,2013-02-07 14:11:00,
2013-02-07 09:32:00,18.0,16.0,-100.00,NE,43,2.0,7.0,90,0.00,,,0.00,4.000000,,2013-02-07 14:32:00,
2013-02-07 09:42:00,18.0,16.0,-100.00,NE,43,2.0,7.0,90,0.00,,,0.00,4.000000,,2013-02-07 14:42:00,
2013-02-07 09:52:00,18.0,16.0,-100.00,NE,43,2.0,7.0,90,0.00,,,0.00,4.000000,,2013-02-07 14:52:00,
2013-02-07 10:02:00,18.0,16.0,-100.00,NE,43,2.0,7.0,90,0.00,,,0.00,4.000000,,2013-02-07 15:02:00,
2013-02-07 10:11:00,18.0,16.0,-100.00,NE,43,2.0,7.0,90,0.00,,,0.00,4.000000,,2013-02-07 15:11:00,
2013-02-07 10:32:00,19.0,17.0,-100.00,NE,47,3.0,7.0,91,0.00,,,0.00,13.000000,,2013-02-07 15:32:00,
2013-02-07 10:42:00,19.0,17.0,-100.00,NE,47,3.0,7.0,91,0.00,,,0.00,13.000000,,2013-02-07 15:42:00,
2013-02-07 10:52:00,19.0,17.0,-100.00,NE,47,3.0,7.0,91,0.00,,,0.00,13.000000,,2013-02-07 15:52:00,
2013-02-07 11:01:00,19.0,17.0,-100.00,NE,47,3.0,7.0,91,0.00,,,0.00,13.000000,,2013-02-07 16:01:00,
2013-02-07 11:11:00,19.0,17.0,-100.00,NE,47,3.0,7.0,91,0.00,,,0.00,13.000000,,2013-02-07 16:11:00,
2013-02-07 11:32:00,20.0,18.0,-100.00,NE,47,3.0,6.0,90,0.00,,,-99.99,24.000000,,2013-02-07 16:32:00,
2013-02-07 11:42:00,20.0,18.0,-100.00,NE,47,3.0,6.0,90,0.00,,,-99.99,24.000000,,2013-02-07 16:42:00,
2013-02-07 11:52:00,20.0,18.0,-100.00,NE,47,3.0,6.0,90,0.00,,,-99.99,24.000000,,2013-02-07 16:52:00,
2013-02-07 12:01:00,20.0,18.0,-100.00,NE,47,3.0,6.0,90,0.00,,,-99.99,24.000000,,2013-02-07 17:01:00,
2013-02-07 12:11:00,20.0,18.0,-100.00,NE,47,3.0,6.0,90,0.00,,,-99.99,24.000000,,2013-02-07 17:11:00,
2013-02-07 12:43:00,20.0,18.0,-100.00,NE,43,4.0,10.0,90,0.00,,,0.00,32.000000,,2013-02-07 17:43:00,
2013-02-07 12:52:00,20.0,18.0,-100.00,NE,43,4.0,10.0,90,0.00,,,0.00,32.000000,,2013-02-07 17:52:00,
2013-02-07 13:01:00,20.0,18.0,-100.00,NE,43,4.0,10.0,90,0.00,,,0.00,32.000000,,2013-02-07 18:01:00,
2013-02-07 13:11:00,20.0,18.0,-100.00,NE,43,4.0,10.0,90,0.00,,,0.00,32.000000,,2013-02-07 18:11:00,
2013-02-07 13:32:00,20.0,18.0,-100.00,NE,34,3.0,8.0,90,0.00,,,0.00,31.000000,,2013-02-07 18:32:00,
2013-02-07 13:42:00,20.0,18.0,-100.00,NE,34,3.0,8.0,90,0.00,,,0.00,31.000000,,2013-02-07 18:42:00,
2013-02-07 13:52:00,20.0,18.0,-100.00,NE,34,3.0,8.0,90,0.00,,,0.00,31.000000,,2013-02-07 18:52:00,
2013-02-07 14:01:00,20.0,18.0,-100.00,NE,34,3.0,8.0,90,0.00,,,0.00,31.000000,,2013-02-07 19:01:00,
2013-02-07 14:11:00,20.0,18.0,-100.00,NE,34,3.0,8.0,90,0.00,,,0.00,31.000000,,2013-02-07 19:11:00,
2013-02-07 14:42:00,20.0,18.0,-100.00,NNE,30,4.0,10.0,90,0.00,,,0.00,34.000000,,2013-02-07 19:42:00,
2013-02-07 14:52:00,20.0,18.0,-100.00,NNE,30,4.0,10.0,90,0.00,,,0.00,34.000000,,2013-02-07 19:52:00,
2013-02-07 15:01:00,20.0,18.0,-100.00,NNE,30,4.0,10.0,90,0.00,,,0.00,34.000000,,2013-02-07 20:01:00,
2013-02-07 15:11:00,20.0,18.0,-100.00,NNE,30,4.0,10.0,90,0.00,,,0.00,34.000000,,2013-02-07 20:11:00,
2013-02-07 15:32:00,20.0,18.0,-100.00,NE,38,5.0,14.0,90,0.00,,,0.00,25.000000,,2013-02-07 20:32:00,
2013-02-07 15:42:00,20.0,18.0,-100.00,NE,38,5.0,14.0,90,0.00,,,0.00,25.000000,,2013-02-07 20:42:00,
2013-02-07 15:52:00,20.0,18.0,-100.00,NE,38,5.0,14.0,90,0.00,,,0.00,25.000000,,2013-02-07 20:52:00,
2013-02-07 16:02:00,20.0,18.0,-100.00,NE,38,5.0,14.0,90,0.00,,,0.00,25.000000,,2013-02-07 21:02:00,
2013-02-07 16:11:00,20.0,18.0,-100.00,NE,38,5.0,14.0,90,0.00,,,0.00,25.000000,,2013-02-07 21:11:00,
2013-02-07 16:42:00,20.0,18.0,-100.00,NE,38,5.0,13.0,90,0.00,,,0.00,20.000000,,2013-02-07 21:42:00,
2013-02-07 16:52:00,20.0,18.0,-100.00,NE,38,5.0,13.0,90,0.00,,,0.00,20.000000,,2013-02-07 21:52:00,
2013-02-07 17:02:00,20.0,18.0,-100.00,NE,38,5.0,13.0,90,0.00,,,0.00,20.000000,,2013-02-07 22:02:00,
2013-02-07 17:11:00,20.0,18.0,-100.00,NE,38,5.0,13.0,90,0.00,,,0.00,20.000000,,2013-02-07 22:11:00,
2013-02-07 17:32:00,20.0,17.0,-100.00,NE,51,5.0,13.0,89,0.00,,,0.00,11.000000,,2013-02-07 22:32:00,
2013-02-07 17:42:00,20.0,17.0,-100.00,NE,51,5.0,13.0,89,0.00,,,0.00,11.000000,,2013-02-07 22:42:00,
2013-02-07 17:52:00,20.0,17.0,-100.00,NE,51,5.0,13.0,89,0.00,,,0.00,11.000000,,2013-02-07 22:52:00,
2013-02-07 18:01:00,20.0,17.0,-100.00,NE,51,5.0,13.0,89,0.00,,,0.00,11.000000,,2013-02-07 23:01:00,
2013-02-07 18:11:00,20.0,17.0,-100.00,NE,51,5.0,13.0,89,0.00,,,0.00,11.000000,,2013-02-07 23:11:00,
2013-02-07 18:42:00,20.0,17.0,-100.00,NE,40,6.0,13.0,89,0.00,,,0.00,2.000000,,2013-02-07 23:42:00,
2013-02-07 18:52:00,20.0,17.0,-100.00,NE,40,6.0,13.0,89,0.00,,,0.00,2.000000,,2013-02-07 23:52:00,
2013-02-07 19:01:00,20.0,17.0,-100.00,NE,40,6.0,13.0,89,0.00,,,0.00,2.000000,,2013-02-08 00:01:00,
2013-02-07 19:11:00,20.0,17.0,-100.00,NE,40,6.0,13.0,89,0.00,,,0.00,2.000000,,2013-02-08 00:11:00,
2013-02-07 20:52:00,20.0,16.0,-100.00,NNE,24,7.0,15.0,85,0.00,,,0.00,0.000000,,2013-02-08 01:52:00,
2013-02-07 21:01:00,20.0,16.0,-100.00,NNE,24,7.0,15.0,85,0.00,,,0.00,0.000000,,2013-02-08 02:01:00,
2013-02-07 21:11:00,20.0,16.0,-100.00,NNE,24,7.0,15.0,85,0.00,,,0.00,0.000000,,2013-02-08 02:11:00,
2013-02-07 21:12:00,20.0,16.0,-100.00,NE,37,6.0,14.0,83,0.00,,,0.00,0.000000,,2013-02-08 02:12:00,
2013-02-07 21:42:00,20.0,16.0,-100.00,NE,37,6.0,14.0,83,0.00,,,0.00,0.000000,,2013-02-08 02:42:00,
2013-02-07 21:52:00,20.0,16.0,-100.00,NE,37,6.0,14.0,83,0.00,,,0.00,0.000000,,2013-02-08 02:52:00,
2013-02-07 22:02:00,20.0,16.0,-100.00,NE,37,6.0,14.0,83,0.00,,,0.00,0.000000,,2013-02-08 03:02:00,
2013-02-07 22:32:00,20.0,14.0,-100.00,NNE,28,6.0,13.0,78,0.00,,,0.00,0.000000,,2013-02-08 03:32:00,
2013-02-07 22:42:00,20.0,14.0,-100.00,NNE,28,6.0,13.0,78,0.00,,,0.00,0.000000,,2013-02-08 03:42:00,
2013-02-07 22:52:00,20.0,14.0,-100.00,NNE,28,6.0,13.0,78,0.00,,,0.00,0.000000,,2013-02-08 03:52:00,
2013-02-07 23:01:00,20.0,14.0,-100.00,NNE,28,6.0,13.0,78,0.00,,,0.00,0.000000,,2013-02-08 04:01:00,
2013-02-07 23:11:00,20.0,14.0,-100.00,NNE,28,6.0,13.0,78,0.00,,,0.00,0.000000,,2013-02-08 04:11:00,
2013-02-07 23:32:00,20.0,13.0,-100.00,NNE,20,5.0,15.0,75,0.00,,,0.00,0.000000,,2013-02-08 04:32:00,
2013-02-07 23:42:00,20.0,13.0,-100.00,NNE,20,5.0,15.0,75,0.00,,,0.00,0.000000,,2013-02-08 04:42:00,
2013-02-07 23:52:00,20.0,13.0,-100.00,NNE,20,5.0,15.0,75,0.00,,,0.00,0.000000,,2013-02-08 04:52:00,